ログ速トップ
サイトで絞り込む
SP」で検索 185246件中 1 - 50 表示
板名 タイトル レス数 更新日付 勢い
モ娘(狼) sc 今夜はついにバナナ♪ゼロミュージック モーニング娘。SPやで! 57 2017-09-23 09:09 551
家庭用ゲーム sc 【Switch】Splatoon2/スプラトゥーン2 イカ507杯目 302 2017-09-23 09:04 664
スマホアプリ sc ミトラスフィア -MITRASPHERE- part151 159 2017-09-23 09:03 275
家庭用ゲーム sc 【Switch】Splatoon2/スプラトゥーン2 不満・愚痴スレ Part3 77 2017-09-23 09:02 49
家庭用ゲーム sc 【Switch】Splatoon2/スプラトゥーン2 初心者スレ54【質問/雑談】 493 2017-09-23 09:00 362
家庭用ゲーム sc 【Switch】Splatoon2/スプラトゥーン2 サーモンランスレ wave33 931 2017-09-23 09:00 745
芸スポ速報+ sc 【芸能】<本田翼>「演技力成長ゼロ」「安定の棒読み」 SPドラマ”校閲ガール”で酷評 458 2017-09-23 08:56 296
PCゲーム sc SKYRIM Special Edition MODスレ Part2 49 2017-09-23 08:54 18
家庭用ゲーム sc 【Switch】Splatoon2/スプラトゥーン2 新規組スレ【前作未経験/雑談】 583 2017-09-23 08:54 27
レトロゲーム sc マインドシーカー80ESP 308 2017-09-23 08:52 7
なんでも実況U sc なんJPRSPA部★46 261 2017-09-23 08:48 46
海外サッカー sc Liga Espanola リーガエスパニョーラ152 153 2017-09-23 08:45 2
野球総合 sc 【SEA18】岩隈久志応援スレPart36【Splitter】 568 2017-09-23 08:43 2
ノートPC sc 【DELL】Inspiron 11 Part5 939 2017-09-23 08:43 2
スポーツ・RACE sc 【XboxONE/360】Forza Motorsport総合424 235 2017-09-23 08:39 103
車種・メーカー sc プリウスPHV PRIUSPHV Part.14 909 2017-09-23 08:39 20
邦楽グループ sc ◆◆GLIM SPANKY◆◆ part7 585 2017-09-23 08:38 19
邦楽グループ sc Gacharic Spin Part27 291 2017-09-23 08:38 22
邦楽グループ sc The Gospellers好き?145 841 2017-09-23 08:37 6
なんでも実況U sc なんJSPRTN部★42 447 2017-09-23 08:36 103
ノートPC sc 【HP】 Spectre 総合スレ Part7 【x360】 995 2017-09-23 08:35 10
携帯ゲーソフト sc 【PSP/VITA/PS4】ダンガンロンパ総合part718 83 2017-09-23 08:34 84
スポーツクラブ sc 【大阪本町】Studio TRIVE part4【TRIP,SPRINT,RPM,GRIT】 882 2017-09-23 08:34 8
ハードウェア sc WiMAX 2+ Speed Wi-Fi NEXT WX03 part4 832 2017-09-23 08:32 6
麻雀・他 sc 麻雀格闘倶楽部sp Part.3 744 2017-09-23 08:32 11
携帯ゲーソフト sc 【PSP】ロード オブ アルカナ ナナメ773°【LoA】 860 2017-09-23 08:31 126
バイク車種・メーカー sc ベスパ vespa ハンドシフト系全般 22速 757 2017-09-23 08:30 6
派遣業界 sc <O.S.P>オーエスピー part.2<OSP> 703 2017-09-23 08:30 0
邦楽グループ sc SPYAIR part15 717 2017-09-23 08:28 22
スポーツ・RACE sc 【GTS】GRAN TURISMO SPORT【Part.29】 4 2017-09-23 08:28 0
新・mac sc iMac Retina 4K Display Part6 5 2017-09-23 08:22 8
スポーツ・RACE sc 【PS4】 NBA 2K18 part.85【2K Sports】 137 2017-09-23 08:20 193
ホテル・旅館 sc 【Starwood】スターウッドホテルズ18泊目【SPG】 576 2017-09-23 08:19 6
携帯ゲーソフト sc 【PSP/PSVITA】初音ミク -Project DIVA-1023【総合】 674 2017-09-23 08:18 58
芸スポ速報+ sc 【テレビ】新スポ番組のアシスタントに本田望結『コヤぶるッ!SPORTS』(カンテレ・毎週土曜17時) 64 2017-09-23 08:15 100
携帯ゲーソフト sc 【PSP・Vita】ゲームアーカイブス359【PS3】 324 2017-09-23 08:14 9
転職 sc セントラル警備保障(CSP)ってどうよ? その15 325 2017-09-23 08:12 4
バイク車種・メーカー sc 【原二】YBR125/G/K/SP/FI/KG 其68 【天剣】 556 2017-09-23 08:10 2
自転車 sc S-WORKS スペシャライズド総合★19 SPECIALIZED 801 2017-09-23 08:09 23
携帯ゲーRPG sc 【PSP】タクティクスオウガ 運命の輪 Part228【TO】 375 2017-09-23 08:08 3
家庭用ゲーム sc 【WiiU】Splatoon/スプラトゥーン無印 S専用スレ 25 176 2017-09-23 08:08 6
少年漫画 sc ポケットモンスター☆SPECIAL part127 638 2017-09-23 08:02 17
音ゲー sc 【Respect】DJMAX総合【TECHNIKA Q】 53 2017-09-23 08:01 5
邦楽グループ sc SPEEDスレ Vol.51【人死んでんねんで】 635 2017-09-23 08:00 14
刃物 sc Spyderco スパイダルコ C27 - Snap-It [無断転載禁止]©3ch.net 9 2017-09-23 07:58 0
車種・メーカー sc ABARTH124spider part6 196 2017-09-23 07:58 8
ゴルフ sc ■☆ USPGAツアー Ver.103 ☆■ 476 2017-09-23 07:55 55
携帯ゲーソフト sc 【PSV /PSP】咲-Saki-総合スレ35翻 529 2017-09-23 07:55 2
ニュース実況+ sc 東京ゲームショウ 人気の「e-Sports」に各社注力 6 2017-09-23 07:52 40
iPhone sc 【NFSNL】Need for Speed No Limits 6REP目 267 2017-09-23 07:51 4

スポンサードリンク